Weather History for Corning, AR

Change the Weather History Date:

Tuesday, June 10, 2014

  Actual Average (KARG) Record (KARG)
Temperature  
Mean Temperature 72 °F -  
Max Temperature 77 °F 83 °F 95 °F (2006)
Min Temperature 66 °F 65 °F 62 °F (2001)
Cooling Degree Days 6    
Growing Degree Days 22 (Base 50)    
Moisture  
Dew Point 68 °F    
Average Humidity 93    
Maximum Humidity 100    
Minimum Humidity 73    
Precipitation  
Precipitation 0.75 in - - ()
Sea Level Pressure  
Sea Level Pressure 29.73 in    
Wind  
Wind Speed 8 mph (South)    
Max Wind Speed 14 mph    
Max Gust Speed 21 mph    
Visibility 9 miles    
Events Rain , Thunderstorm    
Averages and records for this station are not official NWS values.
T = Trace of Precipitation, MM = Missing Value Source: NWS Daily Summary

Daily Weather History Graph

Daily Weather History Graph

Search for Another Location

Airport:

Trip Planner

Search our weather history database for the weather conditions in past years. The results will help you decide how hot, cold, wet, or windy it might be!

Date:

Astronomy

Jun. 10, 2014 Rise Set
Actual Time 5:44 AM CDT 8:20 PM CDT
Civil Twilight 5:13 AM CDT 8:50 PM CDT
Nautical Twilight 4:36 AM CDT 9:28 PM CDT
Astronomical Twilight 3:54 AM CDT 10:10 PM CDT
Moon 5:49 PM CDT (6/10) 3:45 AM CDT (6/10)
Length of Visible Light 15h 36m
Length of Day
14h 35m
Waxing Gibbous, 92% of the Moon is Illuminated
Jun 10
Waxing Gibbous
Jun 12
Full
Jun 19
Last Quarter
Jun 27
New
Jul 5
First Quarter

Hourly Weather History & Observations

Time (CDT) Temp. Dew Point Humidity Pressure Visibility Wind Dir Wind Speed Gust Speed Precip Events Conditions
12:15 AM 68.0 °F 68.0 °F 100% 29.75 in 10.0 mi South 5.8 mph - N/A   Mostly Cloudy
12:35 AM 68.0 °F 68.0 °F 100% 29.76 in 10.0 mi South 6.9 mph - N/A   Overcast
12:55 AM 68.0 °F 68.0 °F 100% 29.76 in 10.0 mi SSE 4.6 mph - N/A   Mostly Cloudy
1:15 AM 68.0 °F 68.0 °F 100% 29.76 in 10.0 mi South 8.1 mph - N/A   Mostly Cloudy
1:35 AM 68.0 °F 68.0 °F 100% 29.75 in 10.0 mi South 8.1 mph - N/A   Overcast
1:55 AM 68.0 °F 68.0 °F 100% 29.75 in 10.0 mi South 5.8 mph - N/A   Overcast
2:15 AM 68.0 °F 68.0 °F 100% 29.75 in 10.0 mi South 6.9 mph - N/A   Overcast
2:35 AM 68.0 °F 68.0 °F 100% 29.74 in 10.0 mi South 6.9 mph - N/A   Overcast
2:55 AM 68.0 °F 68.0 °F 100% 29.74 in 10.0 mi South 8.1 mph - N/A   Overcast
3:15 AM 68.0 °F 68.0 °F 100% 29.74 in 10.0 mi South 9.2 mph - N/A   Overcast
3:35 AM 69.8 °F 69.8 °F 100% 29.73 in 10.0 mi South 9.2 mph - N/A   Overcast
4:15 AM 68.0 °F 68.0 °F 100% 29.73 in 10.0 mi South 11.5 mph - N/A   Overcast
4:35 AM 68.0 °F 68.0 °F 100% 29.74 in 10.0 mi South 10.4 mph - N/A   Overcast
4:55 AM 68.0 °F 68.0 °F 100% 29.73 in 10.0 mi South 9.2 mph - N/A   Overcast
5:15 AM 68.0 °F 68.0 °F 100% 29.73 in 10.0 mi South 9.2 mph - N/A   Overcast
5:35 AM 68.0 °F 68.0 °F 100% 29.72 in 10.0 mi South 10.4 mph - N/A   Overcast
5:55 AM 68.0 °F 68.0 °F 100% 29.73 in 9.0 mi South 9.2 mph - N/A   Mostly Cloudy
6:15 AM 68.0 °F 68.0 °F 100% 29.73 in 7.0 mi South 10.4 mph - N/A   Mostly Cloudy
6:35 AM 68.0 °F 68.0 °F 100% 29.73 in 9.0 mi South 10.4 mph 16.1 mph N/A   Mostly Cloudy
6:55 AM 68.0 °F 68.0 °F 100% 29.73 in 10.0 mi South 9.2 mph - N/A   Mostly Cloudy
7:15 AM 69.8 °F 69.8 °F 100% 29.73 in 9.0 mi South 10.4 mph - N/A   Overcast
7:35 AM 69.8 °F 69.8 °F 100% 29.74 in 9.0 mi South 10.4 mph - N/A   Overcast
7:55 AM 69.8 °F 69.8 °F 100% 29.75 in 10.0 mi South 6.9 mph - N/A   Overcast
8:15 AM 69.8 °F 69.8 °F 100% 29.76 in 9.0 mi South 9.2 mph - N/A   Overcast
8:35 AM 69.8 °F 69.8 °F 100% 29.76 in 9.0 mi South 12.7 mph - N/A   Mostly Cloudy
8:55 AM 71.6 °F 71.6 °F 100% 29.76 in 9.0 mi South 12.7 mph - N/A   Mostly Cloudy
9:15 AM 71.6 °F 71.6 °F 100% 29.75 in 10.0 mi South 12.7 mph 17.3 mph N/A   Partly Cloudy
9:35 AM 71.6 °F 71.6 °F 100% 29.75 in 9.0 mi South 10.4 mph - N/A   Partly Cloudy
9:55 AM 73.4 °F 69.8 °F 88% 29.75 in 9.0 mi South 10.4 mph - N/A   Scattered Clouds
10:15 AM 73.4 °F 69.8 °F 88% 29.75 in 10.0 mi SSW 8.1 mph - N/A   Mostly Cloudy
10:35 AM 73.4 °F 69.8 °F 88% 29.74 in 10.0 mi SSW 8.1 mph - N/A   Scattered Clouds
10:55 AM 73.4 °F 69.8 °F 88% 29.74 in 10.0 mi South 8.1 mph - N/A   Unknown
11:15 AM 73.4 °F 68.0 °F 83% 29.75 in 10.0 mi South 6.9 mph - N/A   Scattered Clouds
11:35 AM 73.4 °F 68.0 °F 83% 29.75 in 10.0 mi SSE 6.9 mph - N/A   Scattered Clouds
11:55 AM 75.2 °F 68.0 °F 78% 29.74 in 10.0 mi SSE 9.2 mph - N/A   Partly Cloudy
12:15 PM 75.2 °F 69.8 °F 83% 29.73 in 10.0 mi SE 8.1 mph - N/A   Unknown
12:55 PM 77.0 °F 69.8 °F 78% 29.72 in 10.0 mi SSE 8.1 mph - N/A   Unknown
1:15 PM 77.0 °F 69.8 °F 78% 29.71 in 10.0 mi South 9.2 mph - N/A   Unknown
1:35 PM 77.0 °F 68.0 °F 74% 29.70 in 10.0 mi SSE 9.2 mph 17.3 mph N/A Thunderstorm Unknown
1:55 PM 77.0 °F 68.0 °F 74% 29.70 in 10.0 mi South 10.4 mph 16.1 mph N/A Thunderstorm Unknown
2:15 PM 75.2 °F 69.8 °F 83% 29.69 in 10.0 mi South 11.5 mph - N/A Thunderstorm Partly Cloudy
2:35 PM 75.2 °F 71.6 °F 89% 29.70 in 7.0 mi SW 13.8 mph 20.7 mph N/A Rain , Thunderstorm Light Thunderstorms and Rain
3:55 PM 73.4 °F 68.0 °F 83% 29.70 in 10.0 mi South 10.4 mph - N/A   Unknown
4:15 PM 73.4 °F 69.8 °F 88% 29.70 in 10.0 mi South 8.1 mph - N/A   Unknown
4:55 PM 75.2 °F 68.0 °F 78% 29.70 in 5.0 mi South 5.8 mph - N/A   Haze
5:15 PM 75.2 °F 66.2 °F 73% 29.70 in 10.0 mi SSW 8.1 mph - N/A   Clear
5:35 PM 75.2 °F 66.2 °F 73% 29.69 in 10.0 mi South 8.1 mph - N/A Thunderstorm Scattered Clouds
5:55 PM 75.2 °F 66.2 °F 73% 29.69 in 10.0 mi South 10.4 mph - N/A Thunderstorm Partly Cloudy
6:15 PM 73.4 °F 68.0 °F 83% 29.69 in 10.0 mi South 8.1 mph - N/A   Clear
6:55 PM 73.4 °F 68.0 °F 83% 29.70 in 10.0 mi NNW 4.6 mph - N/A Thunderstorm Scattered Clouds
7:15 PM 69.8 °F 66.2 °F 88% 29.70 in 10.0 mi North 9.2 mph 16.1 mph N/A   Overcast
7:35 PM 69.8 °F 66.2 °F 88% 29.70 in 1.2 mi NNW 13.8 mph - 0.11 in Rain Light Rain
7:55 PM 66.2 °F 66.2 °F 100% 29.70 in 0.5 mi ENE 11.5 mph - 0.75 in Rain Light Rain
8:15 PM 66.2 °F 66.2 °F 100% 29.71 in 10.0 mi East 10.4 mph - N/A   Scattered Clouds
8:35 PM 66.2 °F 66.2 °F 100% 29.70 in 10.0 mi East 9.2 mph - N/A   Partly Cloudy
8:55 PM 66.2 °F 66.2 °F 100% 29.70 in 10.0 mi ESE 5.8 mph - N/A   Mostly Cloudy
9:15 PM 66.2 °F 66.2 °F 100% 29.70 in 10.0 mi SE 5.8 mph - N/A   Mostly Cloudy
9:35 PM 66.2 °F 66.2 °F 100% 29.70 in 10.0 mi SSE 4.6 mph - N/A   Clear
9:55 PM 66.2 °F 66.2 °F 100% 29.71 in 10.0 mi SSW 4.6 mph - N/A   Clear
10:15 PM 66.2 °F 66.2 °F 100% 29.71 in 10.0 mi SW 3.5 mph - N/A   Clear
10:35 PM 66.2 °F 66.2 °F 100% 29.71 in 10.0 mi SSW 3.5 mph - N/A   Scattered Clouds
10:55 PM 66.2 °F 66.2 °F 100% 29.71 in 8.0 mi NNW 4.6 mph - N/A   Overcast
11:15 PM 66.2 °F 66.2 °F 100% 29.71 in 9.0 mi North 3.5 mph - N/A   Mostly Cloudy
11:35 PM 66.2 °F 66.2 °F 100% 29.72 in 10.0 mi North 4.6 mph - N/A   Clear
11:55 PM 66.2 °F 66.2 °F 100% 29.72 in 9.0 mi North 3.5 mph - N/A   Clear